Weather History for Wilmington, OH

Change the Weather History Date:

Saturday, April 6, 2013

  Actual Average (KDAY) Record (KDAY)
Temperature  
Mean Temperature 48 °F 48 °F  
Max Temperature 64 °F 58 °F 83 °F (1929)
Min Temperature 32 °F 38 °F 18 °F (1982)
Degree Days  
Heating Degree Days 17 17  
Month to date heating degree days 107  
Since 1 July heating degree days 5146  
Cooling Degree Days 0 0  
Month to date cooling degree days 0  
Year to date cooling degree days 0  
Moisture  
Dew Point 26 °F    
Average Humidity 45    
Maximum Humidity 69    
Minimum Humidity 26    
Precipitation  
Precipitation 0.00 in 0.13 in 1.58 in (1938)
Month to date precipitation 0.76  
Year to date precipitation 9.05  
Snow  
Snow 0.00 in 0.10 in 0.30 in (1920)
Month to date snowfall 0.3  
Since 1 July snowfall 23.0  
Snow Depth -    
Sea Level Pressure  
Sea Level Pressure 30.13 in    
Wind  
Wind Speed 9 mph (SE)    
Max Wind Speed 15 mph    
Max Gust Speed 23 mph    
Visibility 10 miles    
Events      
T = Trace of Precipitation, MM = Missing Value Source: NWS Daily Summary

Daily Weather History Graph

Daily Weather History Graph

Search for Another Location

Airport:

Trip Planner

Search our weather history database for the weather conditions in past years. The results will help you decide how hot, cold, wet, or windy it might be!

Date:

Astronomy

Apr. 06, 2013 Rise Set
Actual Time 7:11 AM EDT 8:04 PM EDT
Civil Twilight 6:44 AM EDT 8:31 PM EDT
Nautical Twilight 6:11 AM EDT 9:04 PM EDT
Astronomical Twilight 5:38 AM EDT 9:37 PM EDT
Moon 4:53 AM EDT (4/6) 4:33 PM EDT (4/6)
Length of Visible Light 13h 47m
Length of Day
12h 52m
Waning Crescent, 15% of the Moon is Illuminated
Apr 6
Waning Crescent
Apr 10
New
Apr 18
First Quarter
Apr 25
Full
May 2
Last Quarter

Hourly Weather History & Observations

Time (EDT) Temp. Windchill Dew Point Humidity Pressure Visibility Wind Dir Wind Speed Gust Speed Precip Events Conditions
12:54 AM 37.9 °F 33.5 °F 24.1 °F 57% 30.17 in 10.0 mi ENE 5.8 mph - N/A   Clear
1:54 AM 36.0 °F 29.6 °F 23.0 °F 59% 30.19 in 10.0 mi ENE 8.1 mph - N/A   Clear
2:54 AM 36.0 °F 29.6 °F 21.9 °F 57% 30.19 in 10.0 mi East 8.1 mph - N/A   Clear
3:54 AM 35.1 °F 27.9 °F 21.9 °F 59% 30.19 in 10.0 mi East 9.2 mph - N/A   Clear
4:54 AM 33.1 °F 25.5 °F 23.0 °F 66% 30.20 in 10.0 mi East 9.2 mph - N/A   Clear
5:54 AM 32.0 °F 25.6 °F 23.0 °F 69% 30.23 in 10.0 mi East 6.9 mph - N/A   Clear
6:54 AM 32.0 °F 24.2 °F 21.9 °F 66% 30.24 in 10.0 mi East 9.2 mph - N/A   Clear
7:54 AM 33.1 °F 28.7 °F 21.9 °F 64% 30.27 in 10.0 mi East 4.6 mph - N/A   Clear
8:54 AM 37.9 °F 32.1 °F 23.0 °F 55% 30.27 in 10.0 mi ESE 8.1 mph - N/A   Clear
9:54 AM 44.1 °F 37.7 °F 21.9 °F 42% 30.25 in 10.0 mi ESE 12.7 mph - N/A   Clear
10:54 AM 48.0 °F - 21.9 °F 36% 30.25 in 10.0 mi ESE 10.4 mph - N/A   Clear
11:54 AM 51.1 °F - 23.0 °F 33% 30.23 in 10.0 mi SE 10.4 mph 18.4 mph N/A   Clear
12:54 PM 53.1 °F - 24.1 °F 32% 30.18 in 10.0 mi SSE 15.0 mph 23.0 mph N/A   Mostly Cloudy
1:54 PM 57.9 °F - 26.1 °F 30% 30.14 in 10.0 mi SSE 13.8 mph 20.7 mph N/A   Partly Cloudy
2:54 PM 61.0 °F - 26.1 °F 26% 30.12 in 10.0 mi South 11.5 mph - N/A   Clear
3:54 PM 61.0 °F - 27.0 °F 27% 30.09 in 10.0 mi South 11.5 mph 18.4 mph N/A   Clear
4:54 PM 64.0 °F - 28.9 °F 27% 30.06 in 10.0 mi South 10.4 mph 17.3 mph N/A   Clear
5:54 PM 63.0 °F - 30.0 °F 29% 30.03 in 10.0 mi South 11.5 mph - N/A   Clear
6:54 PM 62.1 °F - 33.1 °F 34% 30.01 in 10.0 mi SSE 9.2 mph - N/A   Clear
7:54 PM 60.1 °F - 34.0 °F 38% 29.99 in 10.0 mi SSE 6.9 mph - N/A   Clear
8:54 PM 57.0 °F - 34.0 °F 42% 29.97 in 10.0 mi SE 6.9 mph - N/A   Clear
9:54 PM 55.0 °F - 32.0 °F 42% 29.97 in 10.0 mi SE 8.1 mph - N/A   Clear
10:54 PM 53.1 °F - 30.9 °F 43% 29.96 in 10.0 mi SSE 9.2 mph - N/A   Clear
11:54 PM 54.0 °F - 32.0 °F 43% 29.95 in 10.0 mi SSE 9.2 mph - N/A   Clear